Theta_e
295 295 295 294 294 293 293 293 293 292 292 291 291 291 291 290 290 290 289 289 289 289 289 288 288 287 287 286 286 286 286 286 285 284 284 283 283 283 283 282 282 282 282 282 281 281 280 280 280 279 279 279 279 278 278 278 278 277 277 277 277 277 277 277 278 278 279 279 279 278 278 278 277 277 276 276 276 276 276 276 275 275 275 275 275
295 295 295 294 294 294 293 293 292 292 291 291 291 291 290 290 290 289 289 289 289 289 289 288 288 287 287 286 286 286 286 286 285 284 283 283 282 282 282 282 282 282 282 281 281 280 280 280 279 279 279 278 278 277 277 276 276 276 275 275 275 275 275 276 276 276 277 277 277 277 276 276 275 275 275 275 275 275 275 275 275 275 275 275 275
295 295 294 293 294 293 293 292 292 291 291 291 291 290 290 290 289 289 289 289 288 288 288 288 288 287 287 286 286 286 285 285 284 283 283 283 282 282 282 282 282 282 282 281 281 280 280 280 279 279 278 277 277 276 276 275 274 274 274 273 273 273 274 274 274 274 275 275 275 275 275 275 274 274 274 275 275 275 275 275 275 275 275 275 275
295 294 294 293 293 293 292 292 291 291 291 291 290 290 290 289 289 289 289 288 288 288 288 288 287 287 286 286 286 285 285 284 283 283 283 282 282 282 282 282 282 282 282 282 281 281 280 279 279 278 277 277 276 275 274 274 273 273 272 272 272 272 273 273 273 273 273 273 273 273 274 274 274 274 274 274 275 275 275 275 275 275 275 275 275
294 294 293 293 292 292 292 291 291 291 291 290 290 290 290 289 289 289 288 288 288 287 287 287 287 286 286 286 285 285 284 284 283 283 282 282 282 282 282 282 282 282 282 282 281 281 280 279 278 277 277 276 275 274 273 273 272 272 271 271 271 271 272 272 272 272 272 272 273 273 273 273 274 274 274 274 275 275 275 275 275 275 275 276 276
294 294 293 293 292 292 291 291 291 291 290 290 290 290 289 289 288 288 288 288 287 287 287 287 286 286 286 285 285 285 284 283 283 283 282 282 282 282 282 282 282 282 282 281 281 280 280 279 278 277 276 275 274 273 273 272 271 271 271 271 271 271 271 271 272 272 272 272 273 273 273 273 274 274 274 275 275 275 275 275 276 276 276 276 276
294 294 293 292 292 292 291 291 291 291 290 290 290 289 289 288 288 287 287 287 287 287 286 286 286 286 286 285 285 284 283 282 282 282 282 282 282 281 282 282 282 282 281 281 280 279 279 278 277 276 275 274 274 273 272 272 271 271 271 271 271 271 271 272 272 272 272 272 273 273 273 274 274 274 275 275 275 275 275 276 276 276 277 277 277
294 293 293 292 292 292 292 292 291 290 290 289 289 288 288 287 287 287 287 287 286 286 286 286 286 286 285 285 285 284 282 282 282 282 282 282 281 281 282 282 282 281 281 280 279 278 278 277 276 275 274 274 273 273 272 272 271 271 271 272 272 272 272 272 272 272 272 273 273 273 274 274 274 274 275 275 275 276 276 276 276 277 277 277 277
294 293 292 292 292 292 292 291 290 290 289 288 288 288 287 287 286 286 286 286 286 286 286 286 286 285 284 284 283 282 282 282 282 282 282 281 281 282 282 282 282 281 280 279 278 277 276 275 275 275 274 274 273 273 272 272 272 272 273 273 273 273 272 272 272 273 273 273 273 274 274 274 274 275 275 275 276 276 276 277 277 277 277 277 278
294 293 292 292 293 292 291 290 290 289 288 288 287 287 286 286 286 285 285 285 285 285 285 285 285 285 284 283 282 282 282 282 282 282 282 282 282 282 282 281 281 280 279 278 277 276 275 275 275 274 274 273 273 274 274 274 274 274 274 274 274 274 273 273 273 273 273 273 273 274 274 274 275 275 275 275 276 276 277 277 277 278 278 278 278
293 293 292 293 292 291 291 290 289 288 288 287 287 286 286 285 285 285 284 284 284 284 284 284 284 283 283 282 281 281 281 282 281 281 281 281 282 282 282 281 280 279 278 277 276 275 275 275 274 274 274 274 274 274 275 275 276 276 276 276 275 275 274 274 274 274 274 273 274 274 274 275 275 275 276 276 276 277 277 277 277 278 278 278 278
293 292 292 292 291 291 290 289 288 287 287 286 286 285 285 284 284 284 284 283 283 283 283 283 282 282 281 281 281 281 281 281 281 280 281 281 281 281 281 280 279 278 277 276 276 275 274 274 274 274 274 274 274 274 274 275 275 275 275 276 276 276 276 276 276 276 276 276 276 276 276 276 276 277 277 277 277 277 277 277 277 277 277 277 277
292 292 292 291 291 290 289 288 287 286 286 285 285 284 284 284 283 283 283 283 282 282 282 282 281 281 281 281 281 281 281 280 280 280 281 280 280 280 280 279 278 277 276 276 275 274 274 274 274 274 274 274 274 274 274 274 274 274 275 275 275 275 276 276 277 277 277 277 277 277 277 277 277 277 277 277 277 277 277 277 277 277 277 277 277
292 292 291 290 290 289 288 287 286 286 285 285 284 284 283 283 283 282 282 282 281 281 281 281 281 280 280 280 280 280 280 280 280 281 280 280 279 279 278 278 277 276 276 275 275 275 275 275 275 275 274 274 274 274 274 273 273 274 274 274 275 275 275 276 276 276 276 276 276 276 276 276 276 276 277 277 277 277 277 277 277 277 277 277 277
291 291 290 290 289 288 287 286 286 285 284 284 283 283 282 282 282 281 281 281 281 281 280 280 280 280 280 280 279 279 279 279 280 281 281 280 278 277 277 277 276 276 276 275 275 275 275 275 275 274 274 274 273 274 274 274 274 274 275 275 275 275 275 275 276 276 276 276 276 276 276 276 276 277 277 277 277 277 277 277 277 277 277 277 277
291 290 290 289 288 287 287 286 285 284 283 283 282 282 281 281 281 281 281 280 280 280 280 279 279 279 279 279 278 279 279 279 280 281 281 281 279 278 277 277 276 276 275 275 275 275 275 275 274 274 274 274 274 274 275 275 275 276 276 276 276 276 276 276 276 276 276 277 277 276 276 276 276 277 277 277 278 278 277 277 277 277 278 278 278
290 289 289 288 288 287 286 285 284 283 283 282 281 281 281 281 280 280 280 279 279 279 278 278 278 278 278 278 278 278 278 279 280 281 280 281 280 279 278 277 276 276 276 275 275 275 275 274 274 274 274 274 274 275 276 276 276 276 276 276 276 276 276 276 276 276 276 276 276 276 276 276 276 277 277 277 277 277 276 276 276 276 277 277 277
289 289 288 288 287 286 285 285 284 283 282 281 281 281 280 280 279 279 279 279 278 278 278 277 277 277 277 277 277 278 278 279 280 280 280 280 280 279 278 277 276 276 276 275 275 275 274 274 274 274 275 275 275 276 276 276 276 276 276 276 276 276 276 276 275 275 274 274 274 275 275 275 275 275 274 274 274 274 274 274 274 274 275 275 276
289 289 288 287 287 286 285 284 283 282 281 281 280 280 280 279 279 279 279 278 278 277 277 277 276 276 277 277 276 277 278 278 279 280 280 280 279 278 277 277 276 276 275 275 275 274 274 274 275 275 275 275 276 276 276 276 276 276 276 276 276 276 275 275 274 274 274 274 274 274 274 273 272 271 271 271 271 272 272 272 273 273 274 275 275
289 288 288 287 286 285 284 284 283 282 281 280 280 279 279 278 278 278 278 277 277 276 276 276 276 275 275 275 275 276 277 278 278 279 279 280 279 278 277 276 276 275 275 274 274 274 274 274 275 275 276 275 275 275 275 276 276 276 276 276 275 274 274 274 274 274 274 274 273 272 271 271 270 270 270 270 271 271 271 272 272 273 274 275 275
288 288 287 287 286 285 284 283 283 281 281 280 279 279 278 278 277 277 277 276 276 275 275 275 275 274 274 274 275 276 276 277 278 278 279 279 279 277 276 276 275 275 274 274 274 274 274 275 275 274 274 274 274 275 275 275 276 276 275 275 274 274 274 274 274 274 273 271 271 270 270 269 269 270 270 270 270 270 271 271 272 272 273 274 275
288 288 287 286 285 284 283 283 282 281 280 280 279 278 277 277 277 276 276 275 275 274 274 274 274 273 273 273 274 275 275 276 277 277 278 279 279 277 276 275 275 274 274 274 274 274 275 275 274 273 273 274 274 275 275 275 275 275 274 274 273 274 274 274 272 271 270 269 269 269 269 269 270 270 270 270 270 270 271 271 272 272 272 273 273
287 287 286 285 284 283 282 282 281 280 279 279 278 277 276 275 275 275 275 274 274 273 273 272 273 272 272 272 273 274 274 274 275 276 277 278 279 278 276 275 275 274 274 274 274 275 274 274 273 272 273 274 274 275 275 275 274 273 273 273 273 273 272 271 270 269 269 268 269 269 269 269 269 269 269 269 270 270 270 271 271 271 271 272 272
286 286 285 284 283 282 281 281 280 279 279 278 277 276 275 275 274 274 274 274 273 272 272 272 272 271 271 271 271 272 272 273 273 275 277 278 278 278 276 275 275 275 274 274 274 274 274 273 272 273 273 274 274 274 273 273 272 271 272 272 272 271 270 269 268 268 268 268 268 269 269 269 269 269 269 269 269 269 269 270 270 270 271 271 271
286 285 284 282 281 281 280 279 279 278 278 277 277 275 274 274 273 273 273 273 272 272 272 272 272 271 271 271 271 271 271 272 272 274 276 277 278 278 277 276 276 276 275 275 274 274 273 273 273 273 273 273 272 272 271 270 270 270 271 270 270 269 268 267 267 267 268 268 268 268 268 268 268 268 268 268 268 269 269 269 270 270 271 271 272
285 284 282 281 280 279 278 278 277 277 277 277 276 275 274 274 273 273 273 273 272 272 272 272 272 272 271 271 271 270 271 272 272 274 275 276 277 278 277 277 277 276 275 274 274 273 273 273 273 273 272 271 270 270 269 269 269 269 269 268 268 267 267 267 267 267 267 268 268 268 268 268 268 268 268 268 268 268 269 269 270 270 271 271 272
285 283 281 280 279 278 277 276 276 275 275 275 275 275 274 274 273 273 273 273 273 273 272 272 272 272 272 271 271 271 271 272 272 273 274 275 276 277 277 277 276 275 274 274 273 273 272 272 272 271 270 270 269 269 269 268 268 268 268 267 267 267 267 267 267 267 267 267 267 267 267 267 267 267 267 268 268 268 269 269 270 271 271 272 272
284 283 281 279 278 277 277 276 275 274 274 274 274 274 273 274 274 273 273 273 273 273 273 272 272 273 272 272 271 271 271 271 272 273 273 274 275 276 276 275 275 274 273 273 272 271 271 271 270 270 269 269 269 268 268 268 268 267 267 267 267 267 267 267 267 267 267 267 267 267 267 267 267 267 267 267 268 268 269 270 270 271 271 271 272
283 282 280 278 277 276 276 275 274 274 274 274 274 274 274 273 274 274 274 274 274 274 274 273 273 273 273 272 272 272 271 271 272 273 273 274 275 275 275 274 274 273 272 272 271 271 271 270 269 269 269 268 268 267 267 267 267 267 267 267 267 267 267 266 266 266 266 266 266 266 267 267 267 267 267 267 268 268 269 270 270 271 271 271 272
281 280 278 277 276 275 274 274 273 273 273 273 273 273 273 273 273 274 274 274 274 274 274 274 274 274 274 273 273 273 273 273 272 273 273 274 274 274 274 273 273 272 272 272 271 271 270 269 269 269 268 267 267 266 266 266 266 266 267 267 267 266 266 266 266 266 266 266 266 266 266 266 267 267 267 268 268 269 269 270 270 271 271 271 272
280 278 277 276 276 275 274 274 273 273 273 273 273 272 272 272 273 274 274 273 274 274 275 274 274 274 274 274 273 273 273 273 273 273 274 274 275 274 274 274 273 273 272 272 271 270 269 269 268 268 267 266 266 266 266 266 266 266 266 266 266 266 266 266 266 266 266 266 266 266 266 267 267 267 267 268 268 269 270 270 270 271 271 271 271
280 279 278 276 276 275 274 273 273 272 272 272 272 272 272 272 273 273 274 274 274 275 275 275 275 275 274 274 273 273 273 274 274 275 275 275 275 275 275 275 274 273 272 271 270 269 269 268 268 267 267 266 265 265 266 266 266 266 266 266 266 266 266 266 266 266 266 266 266 266 267 267 267 267 268 268 269 269 270 270 270 271 271 271 271
281 280 279 277 275 274 273 273 272 272 272 272 272 272 272 272 273 273 274 274 275 275 275 275 276 275 274 274 274 274 274 275 276 276 276 276 276 276 275 275 274 272 271 271 269 268 268 268 267 267 266 266 265 265 265 266 266 266 266 266 266 266 266 266 266 266 266 266 266 267 267 267 267 267 268 269 269 270 270 270 270 270 271 271 271
281 281 280 278 275 274 273 273 272 272 272 272 272 272 272 272 273 273 274 275 275 276 276 276 276 275 275 275 275 275 276 276 277 277 277 277 276 275 275 274 272 271 270 270 269 268 268 267 267 267 266 266 265 265 265 265 265 265 265 265 265 265 266 266 266 266 266 266 267 267 267 267 267 268 268 269 270 270 270 270 270 270 271 271 271
280 280 280 278 276 274 273 273 272 272 272 272 272 272 272 272 273 274 275 275 276 276 276 276 276 276 275 276 276 277 277 277 277 277 277 276 275 274 272 270 269 268 268 268 268 268 268 267 267 267 267 266 266 265 265 265 265 265 265 265 265 265 265 266 266 266 266 266 266 267 267 267 268 268 269 269 270 270 270 270 270 270 270 271 271
280 280 279 277 276 274 273 272 272 272 272 271 271 272 272 273 273 274 275 276 276 276 276 276 276 276 276 277 277 278 278 277 277 276 276 275 274 272 270 268 267 267 267 267 267 267 267 267 267 267 267 266 266 265 265 265 264 265 265 265 265 265 265 265 266 266 266 266 266 266 267 267 268 268 269 270 270 269 269 269 269 270 270 270 271
279 279 279 277 275 274 273 272 272 272 271 271 271 272 272 273 273 274 275 276 276 276 275 276 276 276 277 277 277 277 277 276 276 275 275 274 272 271 270 268 267 267 267 267 267 267 267 267 267 267 266 266 266 265 265 264 264 264 264 264 264 265 265 265 266 266 266 266 266 266 267 267 268 268 269 270 269 269 269 269 269 269 270 270 270
279 279 278 277 275 274 273 272 271 271 271 271 271 272 272 273 274 275 275 275 275 275 275 275 275 276 276 277 277 276 276 275 274 273 272 271 270 269 269 268 267 267 267 266 266 266 267 267 267 266 266 266 266 265 265 264 264 264 264 264 264 264 265 265 265 265 265 265 266 266 267 267 268 268 269 269 269 268 268 268 269 269 269 269 270
278 278 278 277 275 273 272 272 271 271 271 271 271 272 273 273 274 275 275 275 275 274 275 275 275 275 275 275 275 273 272 270 269 268 268 268 268 268 267 267 267 267 266 266 266 266 266 267 266 266 266 266 266 265 265 264 263 263 263 263 263 264 264 264 264 265 265 265 265 266 266 267 268 268 269 269 268 268 268 268 268 268 269 269 269
277 277 277 277 275 273 272 271 271 271 271 271 272 272 272 273 274 274 274 274 274 274 274 273 273 274 274 273 272 270 268 266 265 265 266 266 266 266 267 266 266 266 266 266 266 266 266 266 266 266 266 266 265 265 265 264 264 263 263 263 263 263 263 264 264 264 264 265 265 266 266 267 268 269 269 268 268 268 268 268 268 268 268 269 269
276 276 275 275 274 272 271 271 270 271 271 271 271 272 272 273 273 273 273 273 273 272 272 272 271 271 272 271 269 269 267 264 263 264 265 265 265 265 266 266 266 266 266 266 266 266 266 266 266 266 266 265 265 265 265 264 264 263 263 263 262 262 263 263 264 264 264 265 265 266 266 267 268 269 269 268 268 268 267 267 268 268 268 269 269
275 274 274 273 273 272 270 270 270 270 270 271 271 272 272 272 272 272 271 271 271 270 270 269 268 269 270 269 269 268 267 264 263 264 264 264 265 265 265 265 265 265 265 265 265 265 265 265 265 265 265 265 265 265 265 264 264 264 264 263 262 262 263 263 264 264 264 265 265 266 266 267 268 269 269 268 268 267 267 267 267 268 268 269 269
274 273 272 272 271 270 270 270 270 270 270 270 271 271 271 271 271 270 270 270 269 269 267 266 267 269 270 269 268 268 266 264 263 264 264 264 264 264 264 265 265 265 265 265 265 265 265 265 265 265 264 264 264 264 264 264 264 264 264 263 262 262 263 263 264 264 264 265 265 266 266 267 268 269 269 268 268 267 267 267 267 268 268 268 269
272 271 271 270 270 269 269 269 269 269 269 270 270 270 270 270 269 269 269 268 267 266 266 266 268 269 269 267 267 267 265 264 264 264 264 264 264 264 264 264 265 265 265 265 265 265 265 264 264 264 264 264 264 264 264 264 264 264 264 263 263 263 263 264 264 264 264 265 265 266 266 267 269 269 268 268 267 267 267 267 267 268 268 268 268
270 270 269 269 268 268 268 268 268 268 269 269 268 268 268 268 268 268 267 266 265 265 265 266 267 266 265 265 266 265 264 263 264 264 264 264 264 264 264 264 264 265 265 265 265 264 264 264 264 264 264 264 264 264 264 264 264 265 264 264 264 264 264 264 265 265 264 265 265 266 267 268 269 269 268 268 267 267 267 267 267 267 268 268 268
268 268 268 267 267 267 267 267 267 267 267 267 267 267 267 267 266 266 265 265 264 264 265 265 264 263 263 264 265 264 264 263 263 263 263 264 264 264 264 264 264 264 265 264 264 264 264 263 263 263 263 263 263 264 264 264 264 265 265 265 264 264 265 265 265 265 265 266 266 267 268 269 269 268 268 268 267 267 267 267 267 267 267 268 268
267 267 266 266 266 266 266 266 266 266 266 266 266 265 265 265 264 264 264 263 263 263 263 263 262 262 263 264 264 264 263 263 263 263 263 263 263 264 264 264 264 264 264 264 263 263 263 263 263 263 263 263 263 263 264 264 264 264 265 265 265 265 265 265 265 265 266 266 267 268 269 269 269 268 268 268 267 267 267 267 267 267 267 267 268
266 265 265 265 265 264 264 265 265 265 265 264 264 264 263 263 263 263 262 262 262 262 262 261 261 261 262 263 264 264 263 263 263 263 263 263 263 263 263 263 263 263 263 263 263 263 263 263 263 263 263 263 263 263 263 263 264 264 264 264 264 265 265 265 266 266 267 267 268 269 269 269 268 268 268 267 267 267 266 266 266 267 267 267 267
264 264 264 263 263 263 263 263 263 263 263 263 262 262 262 262 262 262 262 261 261 261 261 261 261 261 262 262 263 263 263 262 262 262 263 263 263 263 263 263 263 263 263 263 263 263 263 263 263 263 263 263 263 263 263 263 263 264 264 264 264 265 265 265 266 266 267 268 269 269 269 268 268 268 268 267 267 266 266 266 266 266 267 267 267
263 263 263 262 262 262 263 262 262 262 262 262 261 261 261 261 261 261 261 260 260 260 260 260 261 261 262 262 262 262 262 262 262 262 263 263 263 263 263 263 263 263 263 263 263 263 263 262 262 263 263 263 263 263 263 263 263 264 264 264 264 264 265 265 266 266 267 268 269 269 268 268 268 268 268 267 267 266 266 266 266 266 266 267 267
262 262 262 262 262 262 262 262 261 261 261 261 261 260 260 260 260 260 260 260 260 260 260 260 261 262 262 262 262 262 262 262 262 262 263 263 262 262 262 263 263 263 263 263 263 263 263 263 263 263 263 263 263 263 262 263 263 263 264 264 264 264 265 265 266 266 268 269 269 268 268 267 268 268 268 267 266 266 266 266 266 266 266 266 267
Wind_Speed
42 43 45 46 45 45 45 45 45 43 41 41 42 42 42 41 41 41 41 41 42 42 43 43 43 43 42 41 40 39 38 36 34 32 30 28 26 24 22 21 18 17 16 16 16 16 15 15 14 13 13 13 14 16 17 17 18 18 19 18 18 16 16 15 12 18 29 30 27 27 25 27 32 31 31 34 34 35 37 38 39 39 38 38 39
44 46 46 45 47 47 46 43 42 41 41 41 42 42 41 41 41 41 41 41 42 43 43 43 43 43 43 43 41 40 39 37 35 33 31 30 27 25 23 21 20 18 18 18 17 17 16 15 15 15 15 16 16 17 18 18 18 19 19 19 19 18 15 17 15 15 25 32 32 32 30 28 32 33 32 34 37 38 38 39 40 41 40 39 41
47 46 44 44 46 46 44 42 41 41 42 42 43 43 42 41 41 41 41 41 41 42 43 43 43 43 44 44 42 41 40 38 36 34 32 30 28 26 24 22 20 19 19 19 18 17 17 16 17 17 17 17 17 17 17 17 16 16 17 16 17 17 15 16 17 15 20 30 32 33 32 29 30 34 35 35 37 38 39 41 41 41 42 41 41
44 42 42 44 44 43 42 41 40 41 43 45 45 44 43 42 42 42 42 41 41 42 42 43 43 44 44 44 43 42 40 38 36 34 32 29 27 26 24 22 21 19 19 19 19 19 18 18 18 18 18 17 17 16 15 14 14 13 13 12 12 14 13 13 16 17 19 27 32 32 32 31 31 33 35 36 37 38 39 41 43 43 43 42 43
41 40 42 42 40 40 40 40 41 43 45 45 45 45 43 42 42 42 42 41 41 41 41 42 43 44 45 45 44 43 41 39 37 34 31 29 26 25 23 22 21 20 20 19 19 19 19 19 19 18 18 17 16 16 14 13 12 10 9 9 8 9 10 11 14 18 19 24 30 31 31 32 33 33 33 35 37 39 40 42 42 42 43 43 41
39 39 39 39 38 39 40 40 43 45 46 46 45 44 43 42 42 42 42 41 41 42 42 43 44 44 45 45 44 43 41 39 37 35 32 28 26 24 23 22 21 20 20 19 19 19 19 19 19 18 17 17 16 15 14 12 12 12 11 10 9 9 10 12 14 18 20 24 28 30 30 30 32 35 34 33 35 37 42 44 41 37 38 41 41
38 39 39 39 39 40 41 44 46 47 46 45 44 43 42 42 42 41 41 41 42 42 43 44 44 45 45 44 44 43 41 39 37 34 31 29 27 26 24 23 22 20 20 19 19 19 19 19 18 18 17 17 16 15 14 13 13 13 12 10 11 12 12 13 15 18 20 23 26 27 29 30 32 36 36 34 35 33 36 41 41 38 37 38 40
37 39 39 39 40 42 45 47 47 46 44 42 41 41 41 41 41 41 41 42 43 44 44 44 44 44 44 44 44 42 41 39 37 34 32 29 28 27 25 24 23 21 20 20 19 19 19 18 18 17 16 16 15 14 14 13 13 13 12 11 12 14 14 14 16 18 20 23 25 25 27 29 30 32 33 32 31 29 30 36 41 43 42 40 39
37 38 37 38 42 44 44 43 42 41 40 39 39 40 41 41 40 41 42 42 43 43 44 45 44 44 43 43 42 41 40 39 37 35 33 31 29 27 25 24 23 22 22 20 19 19 18 17 16 15 14 13 13 14 13 13 13 14 14 14 15 17 18 17 18 19 19 20 21 22 25 26 27 28 29 27 28 33 36 36 37 39 40 41 42
37 36 37 42 44 43 39 38 37 38 38 39 40 40 40 40 40 41 41 42 42 43 43 43 44 44 43 42 41 40 40 39 37 35 32 30 29 28 27 26 24 23 22 20 19 18 17 16 13 11 12 13 14 15 15 14 15 16 16 16 17 19 20 21 22 23 24 23 23 22 22 25 27 27 28 29 33 37 34 30 31 35 36 36 38
36 36 40 43 41 37 36 36 37 38 39 39 39 39 39 39 40 40 40 41 41 42 43 43 43 43 43 42 41 41 40 39 36 33 31 30 30 29 28 27 26 24 22 20 20 18 15 14 12 11 13 15 15 15 15 15 15 16 16 17 18 18 20 22 24 25 28 30 28 23 20 23 27 26 27 30 31 31 31 31 33 35 33 26 25
34 37 39 38 34 33 35 36 36 37 37 38 38 38 38 38 39 39 40 40 41 41 42 42 42 41 41 40 41 41 40 38 35 34 32 31 30 29 29 28 26 24 22 21 19 17 14 13 13 13 14 14 14 14 13 14 14 14 16 17 19 20 21 24 25 25 26 27 26 23 23 27 30 30 31 32 34 36 39 40 38 35 35 30 26
33 34 34 32 32 33 34 35 35 36 37 37 37 37 38 39 39 40 40 40 40 40 40 40 40 40 40 41 41 41 40 38 35 32 31 30 30 29 28 27 25 23 21 19 16 15 14 14 15 14 14 13 13 13 13 13 14 14 17 18 20 22 22 25 27 28 28 28 28 29 29 31 35 37 37 35 38 41 41 41 41 37 36 37 36
31 31 30 29 31 32 33 34 35 35 35 36 36 37 39 39 39 39 39 39 39 39 40 40 40 40 41 41 40 40 39 37 33 29 28 28 28 28 26 24 22 20 17 15 14 14 15 16 16 14 13 12 13 13 13 15 16 17 19 21 24 25 25 25 25 27 31 33 34 37 37 37 39 42 42 39 40 42 40 41 42 37 37 42 45
28 28 27 28 30 31 33 34 33 33 34 35 36 37 38 38 37 38 38 39 40 40 40 41 40 40 40 40 39 38 39 36 30 27 27 26 25 25 23 21 19 16 15 14 14 16 16 16 15 14 13 12 12 12 13 15 17 19 22 23 25 24 24 26 28 31 35 37 38 41 40 37 37 39 41 42 42 43 43 44 44 42 42 45 45
24 25 26 27 30 32 33 33 33 33 35 35 36 37 37 37 37 37 37 37 37 38 38 39 40 39 39 39 38 37 37 34 29 26 27 26 24 23 22 21 19 18 17 17 17 18 17 16 15 13 12 11 11 12 13 14 17 19 20 20 21 23 27 29 29 30 32 33 34 37 37 36 37 39 40 41 42 42 42 42 42 39 36 33 31
21 23 25 27 30 32 33 34 34 34 35 36 36 36 36 36 36 36 36 35 35 36 36 36 37 38 38 38 37 36 36 33 27 26 27 26 26 25 23 23 22 21 20 20 20 19 17 15 12 11 11 12 12 12 12 14 16 18 19 21 24 27 29 28 26 25 27 30 33 36 38 38 38 38 39 39 40 41 40 39 38 34 28 21 17
20 22 24 26 28 30 32 33 34 34 36 37 36 36 35 35 35 36 37 36 35 35 35 34 35 37 37 38 36 36 35 31 27 27 27 26 28 28 26 25 24 23 22 21 19 18 15 13 12 12 13 13 12 12 12 13 16 18 20 23 25 25 24 24 24 27 30 32 32 32 32 33 35 37 40 40 40 40 38 38 40 36 29 23 19
18 20 21 23 25 27 29 30 31 32 33 33 33 33 33 33 34 35 35 35 34 34 34 34 34 35 36 36 35 34 35 31 27 27 27 26 28 30 28 26 25 24 22 20 18 16 14 12 12 13 13 12 11 12 12 12 15 18 21 21 21 22 23 25 27 30 30 28 27 29 32 36 38 40 41 39 37 36 35 36 39 36 30 29 27
15 17 19 21 24 26 28 29 30 31 31 30 29 31 32 32 33 34 34 34 34 34 34 35 34 34 34 34 33 34 36 34 30 29 28 27 27 30 29 28 26 25 22 20 19 17 14 13 13 11 11 10 11 11 11 12 15 18 19 19 20 22 25 27 27 26 26 26 28 33 37 38 36 35 34 33 31 30 31 32 33 34 32 32 32
12 14 17 19 22 25 27 29 30 30 30 30 30 31 32 33 35 36 34 33 33 33 34 34 33 33 33 34 33 34 36 37 33 29 28 27 27 28 30 29 27 25 22 19 18 16 14 14 13 11 9 10 11 11 11 13 15 17 19 19 20 22 23 24 23 23 26 29 32 34 34 33 32 31 30 31 31 31 32 31 31 33 34 34 33
10 12 15 18 21 24 26 27 28 29 29 31 31 31 32 33 35 35 33 32 32 32 32 32 32 31 31 32 33 34 36 37 34 29 27 28 27 27 29 29 26 23 22 20 18 16 14 15 13 10 9 9 10 11 12 13 14 16 17 18 19 20 20 21 23 25 27 29 29 30 30 30 30 30 30 31 31 29 29 29 29 31 34 37 37
8 11 14 17 20 23 24 25 27 28 29 31 31 31 30 31 33 34 33 32 31 30 30 31 31 30 31 31 32 33 34 35 35 30 27 27 26 25 26 26 24 22 22 21 19 17 14 13 11 9 8 9 10 11 12 13 13 14 15 16 17 17 18 20 22 23 25 27 27 27 27 26 27 29 29 29 29 27 27 29 32 34 37 40 41
7 10 13 16 19 22 24 25 27 28 29 31 30 29 30 31 32 32 32 32 30 28 28 30 29 30 33 32 31 32 32 32 34 32 28 27 27 26 25 24 23 22 21 20 17 15 13 10 8 6 7 7 8 8 10 11 11 12 13 14 14 14 16 18 20 22 24 25 24 25 25 25 26 27 28 29 29 30 32 33 35 37 39 42 44
9 10 13 15 18 20 22 24 27 29 31 33 32 31 31 31 30 30 31 31 30 28 28 28 28 29 30 29 29 31 32 31 32 31 28 26 26 26 24 24 23 22 21 18 15 13 11 8 7 6 6 7 7 10 12 12 11 10 11 11 11 12 14 16 19 22 23 23 23 25 26 27 27 28 30 32 32 33 34 34 35 36 37 40 42
11 12 14 16 18 21 22 23 26 28 30 33 33 33 34 33 31 30 30 30 30 28 28 28 27 27 27 27 28 30 30 30 31 30 28 26 26 25 24 23 21 20 18 16 14 12 10 10 9 9 9 9 10 11 12 11 9 8 8 8 9 10 13 16 19 22 23 24 25 26 28 29 30 31 32 32 32 32 33 34 35 35 35 36 38
13 14 16 17 19 22 24 24 25 27 29 31 31 31 33 33 31 30 30 29 28 27 27 27 26 26 25 25 27 28 29 30 30 31 31 29 28 27 26 24 22 19 18 17 16 14 12 11 10 9 9 9 8 8 9 8 6 5 5 6 7 10 12 15 18 21 23 25 26 27 29 31 31 32 33 32 32 33 33 32 33 34 35 35 34
17 18 19 19 21 24 25 26 28 29 30 31 31 32 34 35 34 35 37 37 34 31 30 30 30 31 30 29 28 27 27 30 33 35 36 35 33 31 29 27 25 23 21 19 17 14 11 9 8 8 7 7 6 6 6 4 3 3 4 6 7 9 12 14 17 20 22 25 26 28 30 31 31 32 32 32 33 34 33 32 33 34 36 33 28
19 20 20 21 23 24 25 26 28 30 30 29 30 31 33 35 35 35 38 41 41 39 37 36 36 36 35 34 33 29 27 32 37 39 39 38 36 35 32 30 27 24 21 19 16 14 11 9 8 8 7 6 6 4 3 1 1 3 4 6 8 10 13 15 18 21 22 24 26 28 29 30 30 31 31 31 33 33 33 33 33 33 34 31 25
19 21 22 23 24 25 25 25 26 28 28 27 26 26 27 30 30 28 30 34 36 36 35 37 38 37 36 37 38 36 37 40 40 37 34 32 32 31 30 28 25 22 20 18 16 15 13 11 10 9 8 6 5 4 2 1 2 3 5 7 9 11 14 16 19 21 23 24 26 28 29 29 29 30 30 30 32 33 32 32 33 33 31 27 24
19 20 22 24 26 27 26 25 26 26 26 25 24 23 22 24 24 23 23 26 28 27 27 30 35 37 38 38 35 31 32 36 36 33 32 30 29 27 26 25 23 22 22 21 18 15 14 13 11 10 8 7 5 4 3 2 3 4 6 8 10 12 15 18 20 21 23 25 27 27 27 28 29 30 30 30 32 33 33 32 32 31 30 28 25
22 22 23 25 27 28 27 26 25 25 24 24 24 23 20 19 19 19 18 20 23 23 22 24 28 31 33 36 33 28 28 32 34 33 32 31 29 28 26 24 24 24 23 20 18 17 16 15 13 11 9 8 6 5 4 3 3 4 6 10 12 14 16 18 20 21 24 26 26 26 26 28 29 30 30 30 31 31 32 32 32 31 30 30 28
27 26 25 25 26 27 26 25 25 25 25 24 24 24 22 19 17 17 17 19 21 22 22 22 24 25 26 29 31 31 33 35 34 33 32 31 30 28 26 25 25 24 22 20 19 19 17 16 14 12 10 9 7 6 5 4 3 4 6 10 13 15 17 19 20 22 24 25 24 25 27 29 30 30 30 30 30 31 32 34 34 33 30 28 26
31 30 28 27 26 26 27 27 26 26 26 26 25 25 24 23 21 19 19 18 19 21 22 23 24 25 25 26 28 31 34 35 34 32 32 31 30 29 28 26 23 20 19 20 21 20 19 16 14 13 11 9 8 7 5 4 3 5 7 10 13 16 18 20 21 23 24 24 24 26 28 29 30 30 30 31 32 32 33 35 34 31 28 25 24
30 30 30 29 28 27 27 28 27 26 26 26 25 24 24 24 23 23 21 19 18 19 22 25 26 27 28 28 29 31 32 32 32 31 31 31 31 31 30 28 24 20 19 20 20 20 18 17 15 13 11 9 8 6 5 3 4 6 8 11 14 16 18 21 22 22 23 24 25 27 28 29 31 32 32 32 32 31 32 34 33 30 30 28 25
27 27 27 28 28 27 26 27 27 26 26 26 25 25 24 24 24 24 23 22 21 21 22 25 28 29 28 29 29 30 31 31 30 30 30 31 32 33 32 28 24 23 22 20 19 19 17 16 14 13 11 9 7 6 5 4 5 7 9 11 14 17 19 21 21 22 23 25 26 27 28 30 32 34 32 31 32 32 33 35 35 33 32 31 29
27 26 24 26 27 26 25 25 26 26 26 25 25 25 25 25 25 25 23 22 23 23 24 27 30 30 29 30 31 30 30 30 29 29 29 29 29 30 29 27 25 25 23 21 19 18 16 15 13 11 10 8 7 5 4 4 5 8 10 12 15 18 19 20 21 22 25 26 26 27 29 30 32 34 31 30 32 34 34 36 36 34 34 35 33
28 26 25 25 25 25 24 23 24 25 25 25 25 25 24 24 25 25 24 24 25 25 26 29 30 30 30 32 34 34 33 31 29 28 28 27 27 27 27 26 26 25 23 21 19 17 16 15 13 10 9 7 5 3 3 4 6 8 11 14 16 18 19 20 22 24 25 26 26 28 30 32 33 33 31 31 34 36 36 37 36 33 34 34 30
26 26 25 24 23 23 23 22 22 24 24 23 24 24 24 24 24 24 24 24 25 25 26 27 28 29 31 34 37 38 36 32 30 30 29 28 27 27 27 26 25 24 23 21 19 17 16 15 12 10 9 6 4 3 3 5 7 9 12 14 16 18 20 22 24 25 26 26 28 29 31 32 33 32 32 34 37 38 38 38 36 34 33 31 28
23 23 24 22 21 22 23 22 22 23 23 23 23 24 24 24 24 24 24 24 24 24 25 26 26 28 33 37 40 40 36 31 29 31 31 30 29 28 27 26 25 24 23 21 19 17 16 14 12 10 8 6 4 3 4 5 7 9 12 14 16 18 21 22 24 26 27 27 29 30 32 33 33 32 33 36 39 40 39 39 39 38 36 33 33
22 21 21 21 21 21 20 21 22 22 23 24 24 24 24 25 25 24 25 25 24 24 24 25 25 29 35 37 38 39 37 33 33 33 32 31 31 29 27 26 25 24 22 21 19 17 15 13 11 9 7 6 5 4 4 6 8 10 12 14 16 19 21 23 25 26 27 28 29 31 33 34 33 31 34 38 40 41 42 41 40 40 38 36 35
22 19 18 19 20 20 20 20 20 21 23 23 23 24 24 25 25 25 25 25 25 25 25 25 26 29 32 33 34 37 37 35 34 33 32 31 31 29 27 26 24 22 21 20 17 15 13 11 10 8 7 5 5 5 5 7 8 10 12 15 17 19 22 24 26 27 28 28 29 31 34 35 32 31 35 40 42 42 43 42 40 39 38 36 34
21 19 18 19 20 20 21 21 21 22 22 22 22 23 24 24 24 25 25 25 26 27 28 28 28 29 30 31 34 37 36 34 33 33 32 31 30 28 27 25 23 21 19 17 15 13 11 9 8 7 6 5 5 6 6 7 8 10 12 15 17 20 22 25 26 28 29 29 31 35 38 36 33 33 37 41 42 42 42 41 40 39 37 35 34
18 18 18 19 20 20 21 22 22 22 23 24 24 25 27 26 26 27 26 26 26 27 28 30 30 30 31 32 35 36 35 33 33 33 32 31 30 28 26 24 21 19 17 15 12 11 9 8 7 6 6 5 5 6 6 7 8 10 13 16 18 20 23 24 27 30 31 31 35 40 41 36 32 34 39 41 42 41 40 40 40 39 37 35 32
16 17 18 18 19 19 20 21 22 22 23 24 23 24 25 26 26 26 27 26 26 27 27 27 27 29 32 35 37 36 35 33 32 32 31 30 29 27 24 22 19 17 15 13 11 9 8 7 7 6 6 6 6 6 7 7 8 10 13 15 18 20 22 24 26 30 31 33 38 42 39 33 32 36 39 40 41 41 41 41 41 39 37 35 32
15 17 18 18 18 18 19 20 22 23 24 23 22 21 22 23 24 25 26 26 27 29 29 28 27 29 33 36 37 36 34 33 32 31 30 29 27 25 23 20 18 16 14 12 11 9 8 7 7 6 6 6 7 7 8 8 9 11 12 14 17 20 21 23 26 30 32 36 39 39 34 32 34 37 38 39 41 41 41 42 41 39 37 37 34
15 16 17 17 18 18 19 20 21 22 22 22 22 22 22 23 24 25 25 26 28 29 29 29 30 32 35 37 37 36 34 33 32 31 29 28 26 24 21 19 17 15 13 12 10 9 7 6 6 6 6 7 7 8 9 10 11 12 13 15 17 18 20 22 26 29 33 37 37 33 31 33 36 37 37 39 41 41 41 41 40 39 38 38 36
16 16 17 17 18 18 18 19 21 20 20 20 21 22 23 24 25 25 26 28 29 29 28 29 32 35 37 37 36 34 33 32 31 30 28 26 24 23 21 19 17 15 13 11 9 8 6 6 5 6 7 8 9 10 11 12 12 13 15 16 17 18 19 21 24 28 33 36 34 30 30 34 35 35 35 37 39 41 41 41 40 39 38 38 37
17 17 18 18 18 18 18 19 20 20 20 22 22 22 23 25 26 27 27 27 26 26 28 32 36 38 38 37 35 33 33 32 31 29 27 25 24 22 20 18 16 14 12 10 8 7 6 5 5 6 7 8 10 11 12 13 13 14 16 17 18 19 19 21 24 29 33 34 32 29 31 34 34 33 34 36 38 40 41 40 40 39 38 36 35
18 19 19 18 18 18 19 19 20 20 21 23 23 23 24 26 27 29 30 28 27 28 32 36 38 38 38 37 35 33 32 31 30 28 26 24 23 21 19 17 15 13 11 9 7 6 5 5 6 7 8 9 10 11 12 13 14 15 16 18 19 20 20 22 25 29 31 32 31 30 32 34 34 32 33 35 37 39 40 39 39 38 36 34 34
20 20 20 20 20 20 20 20 21 21 21 23 24 24 26 27 28 30 32 33 34 35 37 38 38 37 37 35 33 32 31 30 28 26 25 23 21 19 17 15 14 12 9 8 6 5 4 5 6 7 9 10 11 12 13 13 13 14 16 18 19 20 22 23 26 28 30 31 30 31 32 34 33 32 32 34 36 38 39 39 38 37 35 34 34
Wind_Direction
214 215 217 217 219 220 221 221 220 220 220 219 220 221 221 221 220 218 217 217 215 214 214 213 211 208 206 205 204 202 201 200 200 201 201 201 202 202 201 201 202 202 205 208 212 217 222 227 234 240 245 249 252 255 256 257 260 262 263 266 267 268 274 278 279 286 291 293 297 303 308 311 310 312 313 311 309 309 309 308 310 311 311 309 307
216 217 217 217 218 219 220 221 219 219 219 220 221 221 221 221 220 218 217 217 215 214 213 212 210 208 206 205 204 204 203 202 201 201 201 200 199 200 200 200 200 200 203 206 210 215 222 227 232 237 242 246 248 251 254 257 260 263 264 264 266 265 264 272 279 286 291 295 300 303 308 313 312 311 314 311 309 309 309 308 310 310 310 308 306
219 218 217 218 219 219 219 219 218 217 218 219 220 221 221 220 219 218 217 216 214 213 212 211 208 206 205 204 204 204 203 203 202 202 201 201 199 199 199 200 200 200 202 206 210 215 220 225 231 235 238 241 244 248 251 255 257 261 262 259 260 262 257 263 274 281 290 295 298 303 308 312 310 309 311 309 307 309 309 309 309 307 307 306 304
221 218 217 219 219 218 218 217 216 216 217 218 219 219 219 219 218 218 216 215 213 212 211 210 207 205 203 203 203 203 203 203 203 203 203 202 201 200 198 199 200 202 205 208 211 216 221 224 228 233 236 238 241 244 245 249 252 250 251 251 251 259 261 259 266 277 288 293 295 299 304 306 305 305 307 307 307 308 308 308 308 306 304 304 301
221 219 218 219 218 217 217 215 215 216 217 218 218 218 217 216 216 215 213 212 211 209 208 207 206 204 203 203 203 203 203 203 203 203 202 202 201 200 199 199 201 203 207 210 213 218 222 226 229 231 233 234 236 239 239 240 242 236 238 246 244 255 267 268 272 279 282 285 291 296 299 300 301 301 304 307 308 308 307 306 306 304 303 304 301
220 219 218 218 217 217 216 214 215 217 217 217 217 216 215 213 213 212 210 209 208 206 205 205 205 204 204 204 203 203 204 203 203 202 200 199 199 199 199 200 202 204 207 211 216 221 224 227 230 231 231 232 234 236 237 233 232 234 235 242 250 260 267 270 276 277 273 276 284 290 294 295 297 299 302 305 305 306 306 304 304 303 302 304 303
219 218 217 217 217 216 215 215 217 218 217 216 215 213 212 211 210 209 208 207 205 204 203 203 204 205 204 204 204 204 203 201 201 200 198 198 198 198 199 200 202 204 208 213 217 223 228 229 231 232 231 234 236 235 234 230 230 236 239 244 256 263 264 266 269 268 267 273 277 282 287 290 292 294 296 300 299 297 300 302 304 307 303 299 299
217 217 216 216 217 217 217 218 218 217 216 215 213 210 209 208 207 206 205 204 203 203 202 202 203 203 204 205 205 204 202 199 199 198 198 198 198 198 198 199 201 204 207 215 219 223 228 229 230 233 234 237 239 236 233 232 233 237 241 250 258 261 262 260 261 260 261 267 271 275 281 283 285 287 289 294 292 288 295 298 297 301 303 299 296
216 216 215 217 219 219 219 218 217 216 214 212 210 208 207 205 204 204 203 202 203 203 202 202 201 201 202 203 203 201 200 200 200 199 198 197 197 197 198 199 202 204 207 212 218 222 226 228 229 234 238 237 232 230 231 233 238 243 249 256 258 258 258 254 252 253 254 260 266 271 276 276 277 281 283 284 284 286 293 293 287 291 298 298 296
215 214 214 218 220 219 217 215 213 212 210 209 208 205 203 202 201 201 201 201 200 200 200 200 200 200 200 200 199 199 199 200 201 200 199 199 197 196 197 199 201 204 206 209 214 219 222 226 230 233 232 228 224 226 231 234 240 250 258 262 259 255 253 252 253 254 254 257 261 264 269 269 270 275 276 277 283 288 290 289 288 293 298 297 296
215 214 216 219 219 215 212 210 208 208 207 206 204 202 200 199 198 198 198 197 198 198 197 197 198 199 199 198 198 198 199 201 200 199 199 200 200 197 196 198 199 202 205 206 209 214 218 222 227 224 220 221 224 226 231 236 242 250 255 258 259 256 253 254 257 258 256 256 258 257 260 267 271 276 278 281 288 290 290 292 294 296 298 297 295
216 216 218 219 215 210 207 205 203 203 203 202 201 199 198 197 196 196 195 195 195 195 195 195 196 197 197 197 198 198 200 201 199 198 198 199 200 199 197 196 197 199 202 205 209 211 213 215 218 221 220 221 224 227 231 237 242 248 254 258 259 260 261 261 264 267 265 264 267 267 268 276 282 284 285 288 292 292 292 292 290 289 290 288 285
218 218 219 215 210 207 204 200 200 200 199 198 197 195 195 195 195 195 194 193 193 193 193 194 194 195 196 197 198 200 201 199 196 195 195 196 198 198 197 197 197 198 200 204 208 209 209 210 211 218 224 222 223 229 234 241 247 253 258 260 261 261 264 266 267 270 273 276 279 278 276 280 282 283 285 288 290 290 289 288 285 283 281 279 277
216 218 216 212 208 204 200 198 197 197 196 194 193 193 193 194 194 193 192 191 191 192 192 193 194 195 196 197 198 200 200 197 193 190 189 191 196 196 195 194 195 197 199 203 210 212 212 212 212 219 228 231 231 235 242 251 257 261 264 265 265 264 263 265 269 271 273 274 273 274 275 273 273 277 282 284 284 283 284 284 283 280 277 276 276
214 214 212 208 205 201 198 196 194 193 192 191 191 191 192 192 191 191 191 191 192 193 192 193 194 194 196 196 196 199 199 194 189 186 184 184 189 191 191 190 193 197 201 206 212 213 212 215 222 232 239 243 246 248 255 262 264 265 267 266 267 268 267 267 271 273 272 270 269 271 274 274 273 277 281 283 283 281 281 281 280 279 279 279 279
210 209 206 204 202 199 196 193 191 190 189 188 189 190 190 190 190 189 190 191 192 193 193 193 193 193 194 195 195 197 197 191 185 185 183 179 181 187 190 192 193 195 199 204 209 212 217 225 235 242 244 249 257 256 257 265 268 269 271 271 273 275 273 272 273 274 275 275 276 279 282 281 281 283 283 285 286 286 288 287 284 282 280 278 278
207 205 204 203 201 199 196 192 189 188 187 187 189 190 189 189 189 187 187 188 190 191 192 192 192 192 192 193 195 196 193 187 183 184 182 178 181 186 189 189 190 193 199 205 210 217 227 234 235 239 248 258 262 259 258 266 272 275 279 281 278 275 274 276 277 278 280 283 283 284 284 284 284 285 286 287 287 290 294 291 287 287 285 280 278
208 205 205 204 201 198 196 193 190 188 187 188 189 188 188 187 187 187 187 188 189 190 190 190 191 193 193 193 195 195 190 185 183 184 181 180 183 187 188 187 189 194 199 204 214 223 228 230 232 241 253 258 258 258 262 268 273 278 279 278 276 275 279 284 286 287 288 287 285 283 282 284 287 288 289 288 287 287 287 283 283 285 284 279 279
208 206 206 204 201 198 196 194 192 189 189 190 188 186 185 185 186 187 187 188 188 188 188 188 189 191 193 193 194 194 189 183 183 185 181 181 187 191 189 187 188 193 197 202 213 221 222 224 230 237 244 252 257 262 265 266 271 277 278 278 280 282 287 290 290 292 291 287 285 286 286 288 290 291 290 288 285 282 278 276 278 278 273 271 272
212 210 207 203 200 198 196 195 194 192 190 189 187 185 184 184 183 185 186 187 186 186 187 188 188 189 191 192 193 194 190 183 183 186 182 182 190 193 191 189 189 190 193 199 205 211 218 224 225 228 238 252 260 261 263 265 271 279 282 283 285 286 289 291 292 292 291 290 291 293 293 293 293 291 290 288 285 283 278 275 275 273 271 270 269
219 212 206 201 199 197 196 196 195 194 191 187 184 184 185 184 183 183 184 184 183 183 184 186 186 187 189 190 192 194 191 187 185 185 183 184 190 195 194 193 191 189 190 195 201 205 210 214 217 226 241 253 258 258 264 270 276 282 284 282 283 286 291 294 295 295 295 296 296 295 294 294 292 290 289 289 288 286 281 277 274 272 273 276 276
223 208 201 198 197 195 196 197 196 193 191 186 183 182 183 184 184 182 182 182 181 181 182 182 182 183 184 188 191 192 192 191 188 185 183 184 188 194 197 195 192 190 189 194 199 197 198 208 221 235 241 247 255 261 269 277 281 282 281 281 284 290 295 296 296 298 299 299 298 295 292 292 292 292 294 294 292 289 284 280 276 274 274 274 276
225 208 200 195 195 195 195 196 195 192 189 186 183 181 181 182 182 181 181 180 178 179 180 179 179 179 180 184 190 191 191 192 190 185 183 185 186 191 195 192 189 189 189 191 193 191 197 213 228 233 236 246 259 268 276 283 283 280 281 285 291 295 297 297 298 302 302 299 295 291 289 291 293 296 299 299 297 294 288 284 282 280 278 276 275
223 212 203 195 195 195 194 194 194 191 188 185 182 180 179 180 180 181 181 179 178 178 180 180 179 179 180 182 186 189 189 189 189 187 183 184 186 188 188 185 185 189 189 188 189 193 205 220 225 222 232 248 265 275 278 279 280 280 284 292 298 299 299 301 304 305 301 295 290 288 289 292 295 298 300 300 299 297 292 288 285 283 282 281 278
228 217 207 200 198 195 193 193 193 191 189 186 183 181 180 179 180 182 182 182 181 181 181 183 184 182 181 180 182 186 186 185 186 185 182 183 186 186 185 182 181 184 186 187 191 196 202 206 201 206 228 246 260 268 269 270 277 284 289 295 299 302 304 305 305 301 294 290 290 290 292 296 298 299 300 301 300 298 294 291 290 288 287 285 281
234 222 209 204 200 195 192 192 192 192 190 188 188 186 183 182 183 184 185 186 186 185 184 186 187 185 184 183 180 181 183 181 180 180 179 180 184 185 184 181 178 178 180 182 181 178 180 187 197 212 235 253 262 265 266 268 271 276 286 299 304 309 311 306 302 298 293 291 293 293 296 300 301 302 303 303 302 299 296 294 293 293 292 289 284
232 223 213 206 200 196 194 192 191 192 191 190 190 189 188 188 186 186 188 189 190 190 188 187 187 186 185 183 178 177 179 179 177 177 177 178 181 182 181 178 175 172 171 170 172 174 180 191 210 230 246 253 253 252 251 254 262 274 297 315 314 314 313 305 298 296 294 294 296 298 300 303 303 303 305 305 302 300 298 296 295 295 295 291 285
229 223 216 209 203 200 198 195 193 193 194 194 193 192 192 192 192 194 195 192 190 191 190 190 191 189 183 178 175 174 178 182 181 179 178 178 179 179 176 173 172 172 171 172 175 179 187 197 213 230 237 232 226 224 224 232 267 300 315 325 322 320 317 307 299 298 300 301 301 301 303 304 303 304 305 304 301 299 298 297 296 295 295 292 283
227 220 214 208 205 203 201 200 197 196 196 199 200 200 198 198 200 204 204 200 197 195 194 194 194 190 184 180 176 174 180 187 186 183 180 178 177 175 172 172 173 173 174 177 177 175 181 196 205 206 204 198 192 189 192 222 286 299 313 328 329 322 316 309 305 307 309 308 304 303 303 303 303 304 304 301 298 298 298 298 297 296 294 289 281
227 218 211 206 205 202 200 201 200 198 198 201 203 206 208 207 208 213 214 211 208 204 201 199 196 190 186 185 183 184 188 189 186 181 178 176 175 172 170 170 170 167 167 172 174 173 177 186 188 185 180 174 173 175 180 234 286 312 334 339 332 322 316 312 312 313 312 308 305 303 303 302 302 303 302 299 297 298 298 298 298 297 293 287 281
229 220 213 209 207 203 200 201 200 199 201 201 200 203 207 211 215 220 220 217 214 211 209 205 198 192 189 187 187 189 189 183 176 172 172 172 171 168 165 165 164 161 163 168 170 171 176 177 174 172 172 168 170 180 188 213 284 318 332 331 327 322 316 314 316 315 311 307 305 303 302 302 301 300 299 298 297 297 298 300 300 297 292 286 283
234 228 220 214 210 205 201 200 198 196 198 199 199 199 198 201 209 216 218 213 209 208 207 202 196 193 191 186 183 181 176 169 166 167 169 170 168 164 162 162 159 158 165 171 169 167 171 173 168 165 169 173 177 186 197 216 258 303 315 313 314 315 315 316 317 313 308 306 304 302 303 302 300 300 300 299 298 297 299 302 302 299 295 289 285
239 236 228 217 209 204 201 199 196 195 195 195 195 195 193 192 195 197 199 199 199 201 202 197 190 186 184 182 179 173 167 164 165 168 170 168 163 159 158 157 154 157 167 172 167 164 167 167 166 167 172 178 182 186 197 217 249 292 301 299 302 310 315 316 314 309 307 306 304 302 304 304 303 303 302 300 299 299 300 302 302 299 296 291 287
244 241 233 221 210 204 202 199 197 196 197 195 194 194 194 193 188 181 180 182 186 190 191 189 184 177 173 172 170 165 163 163 165 168 168 163 158 154 151 147 146 155 169 172 167 165 166 166 167 171 174 179 186 193 204 222 257 290 297 299 303 310 315 315 312 309 308 308 306 305 307 307 307 306 305 303 302 301 301 301 300 298 295 291 288
249 246 238 225 215 207 204 201 198 196 195 195 194 194 193 191 187 183 180 178 177 176 174 175 176 172 167 165 163 162 163 163 164 165 163 157 154 151 146 141 141 150 161 165 165 166 167 168 170 173 176 182 189 198 214 239 271 287 297 304 307 309 312 313 312 310 309 309 309 309 310 310 311 310 306 304 304 304 303 302 301 298 295 292 289
252 248 239 227 217 210 205 201 197 195 194 192 192 192 191 189 187 185 183 179 172 165 160 160 163 163 161 161 161 161 161 160 160 160 158 154 154 155 151 146 146 150 154 158 162 164 165 168 172 174 176 184 194 203 222 249 274 289 299 305 305 305 309 310 310 309 310 311 311 311 312 313 314 313 308 304 304 305 304 302 301 299 296 295 293
252 247 238 227 217 210 205 200 196 194 192 189 188 188 187 187 186 183 181 176 168 161 156 154 153 154 156 159 159 158 156 155 154 154 151 151 158 164 162 155 152 153 155 158 162 163 164 167 170 172 175 186 197 209 231 259 282 295 300 301 301 303 306 307 308 310 311 311 311 312 314 315 315 313 308 305 307 308 306 304 303 300 298 299 298
250 245 239 228 215 206 202 196 191 190 187 185 186 185 184 184 184 181 178 173 166 161 159 157 156 154 155 156 154 151 148 146 144 145 147 152 162 167 164 158 156 157 157 159 162 164 165 165 168 171 177 187 201 221 259 290 300 300 300 299 300 304 306 308 310 313 312 310 311 314 316 316 315 312 309 308 310 310 308 305 304 301 300 301 298
253 247 241 229 212 202 198 191 185 184 183 182 183 183 181 181 181 179 176 170 165 163 161 159 158 156 153 150 148 146 144 142 142 143 147 153 159 160 158 156 157 157 157 158 161 163 164 165 169 176 182 193 212 245 288 306 305 300 299 300 301 305 309 310 311 312 311 310 312 315 316 315 313 309 308 310 312 311 309 306 305 303 301 300 298
256 248 238 225 206 197 194 188 183 182 181 180 181 180 179 180 178 175 171 166 163 163 161 159 157 155 152 150 150 150 148 146 146 148 149 151 154 156 156 157 156 156 157 159 160 161 163 166 172 180 190 205 225 254 286 299 300 298 300 303 305 306 309 310 310 310 310 310 312 315 316 314 311 308 309 312 313 312 310 307 305 304 302 300 299
254 243 231 215 200 191 186 184 184 183 180 179 180 178 178 178 174 169 167 163 160 158 156 153 152 152 153 153 154 155 152 148 148 150 150 151 152 154 155 156 157 157 158 159 159 160 163 168 176 187 198 212 230 258 281 292 297 299 303 310 310 306 307 310 311 310 310 311 313 315 315 313 310 308 310 314 314 313 310 308 306 305 304 303 302
248 233 216 201 190 184 179 179 181 180 178 179 180 178 176 173 168 164 161 158 154 151 148 147 150 152 151 151 153 154 151 148 147 149 149 150 152 152 152 154 155 157 158 159 159 161 166 172 183 196 208 220 241 267 280 290 300 305 310 314 311 306 307 311 314 313 312 312 313 314 314 311 309 309 312 314 314 313 311 309 307 307 306 305 304
237 217 200 189 184 180 176 175 175 174 174 175 174 171 169 165 160 158 156 154 152 150 148 147 150 150 147 147 152 154 150 147 147 148 148 150 150 150 150 152 153 155 158 159 159 164 173 182 194 211 226 239 257 274 283 296 307 313 316 315 311 309 312 315 315 315 314 313 312 313 312 310 309 311 315 315 314 313 312 310 309 309 307 306 306
216 196 185 180 176 173 171 170 170 169 170 168 165 164 162 160 157 156 155 153 151 151 150 151 151 147 144 147 152 152 150 148 149 149 149 150 151 150 150 152 154 156 160 163 167 175 185 197 210 225 239 251 265 278 289 301 311 317 318 316 313 314 316 316 316 317 315 312 312 312 311 309 311 315 316 316 315 314 312 311 311 310 309 308 307
189 176 170 166 163 163 163 164 163 161 160 159 158 158 159 158 156 155 153 150 149 149 151 151 148 144 145 149 152 152 151 150 150 150 151 151 151 151 152 155 158 161 164 169 176 186 197 209 222 234 245 256 270 285 294 299 307 315 319 318 318 318 319 320 320 319 315 312 311 310 309 310 315 316 316 315 315 314 312 312 312 311 310 310 309
168 162 158 155 154 153 154 155 154 153 153 152 151 151 151 152 151 150 149 148 148 150 150 146 142 143 147 151 152 152 151 151 151 152 152 153 152 152 154 156 160 164 168 173 181 190 202 215 229 243 254 264 279 295 300 299 303 309 315 319 321 322 325 326 325 320 316 314 313 311 310 314 317 316 315 315 316 315 313 313 313 312 311 311 310
149 147 146 146 144 143 144 146 146 147 148 148 146 145 145 145 145 144 144 144 145 147 145 142 141 145 150 153 153 151 150 151 152 153 153 153 152 153 156 158 161 165 169 174 182 192 202 215 231 250 267 280 295 304 306 304 304 308 312 318 321 325 329 330 327 323 322 319 315 311 313 317 317 314 315 316 317 316 315 314 314 313 312 312 312
132 131 132 134 133 133 136 138 138 138 139 139 138 138 139 140 140 139 140 141 143 144 143 142 144 148 152 153 153 152 151 152 153 153 152 153 153 155 158 160 163 166 170 175 181 191 204 221 240 259 277 292 303 310 311 310 307 308 313 318 322 327 332 333 331 330 327 322 316 314 318 319 315 312 315 317 317 317 316 315 315 315 314 314 315
117 118 121 123 124 127 131 132 133 134 134 133 133 133 136 138 139 139 140 141 142 143 144 145 148 151 151 151 151 151 151 151 152 152 152 153 155 156 159 161 163 166 169 172 180 192 206 227 251 270 286 298 306 312 315 313 309 310 315 319 323 329 335 336 335 332 327 321 318 319 322 320 315 313 315 318 319 319 318 317 317 317 316 316 317
106 110 112 114 116 120 123 124 126 128 130 131 131 132 135 139 142 143 142 142 142 143 146 149 151 152 151 151 151 151 151 152 153 153 154 155 157 159 161 163 164 166 168 171 180 197 216 241 265 281 292 302 307 311 315 315 312 311 315 319 324 332 339 339 334 329 325 322 322 325 325 321 316 315 317 320 321 321 320 319 319 319 318 317 319
104 106 107 109 112 115 118 120 121 125 128 131 133 135 138 141 142 144 144 144 144 146 149 152 153 152 151 151 151 152 152 153 153 154 155 157 159 161 163 164 165 166 170 177 188 207 235 260 279 291 298 304 309 313 316 316 313 312 317 324 330 336 340 338 332 326 324 325 326 327 326 322 317 315 318 322 323 322 321 321 321 320 320 320 321